This demonstration page uses our WeatherBlox Daily Observations layout. Learn more.

39.01783, -85.05884

Hourly Observations for August 10, 2020

Temp ( °F °C ) Dew Point ( °F °C ) Humidity (%) Winds ( mph kmh ) Pressure ( in mb ) Visibility ( mi km ) Precip ( " mm )
12:52 am 00:52 Clear 73 22.8 67 19.4 81 81 WSW 3 6 30.05 1018 10 16.0934 0 0
1:52 am 01:52 Clear 72 22.2 67 19.4 84 84 SSW 3 6 30.05 1018 10 16.0934 0 0
2:52 am 02:52 Mostly Clear 71 21.7 67 19.4 87 87 SSW 6 9 30.05 1018 10 16.0934 0 0
3:52 am 03:52 Mostly Clear 69 20.6 67 19.4 93 93 S 5 7 30.04 1017 7 11.26538 0 0
4:52 am 04:52 Mostly Clear 69 20.6 66 18.9 90 90 S 3 6 30.04 1017 9 14.48406 0 0
5:52 am 05:52 Mostly Clear 69 20.6 66 18.9 90 90 Calm 30.03 1017 10 16.0934 0 0
6:52 am 06:52 Mostly Sunny 68 20 65 18.3 90 90 S 6 9 30.03 1017 8 12.87472 0 0
7:52 am 07:52 Mostly Sunny 71 21.7 67 19.4 87 87 S 5 7 30.04 1017 8 12.87472 0 0
8:52 am 08:52 Partly Cloudy 74 23.3 67 19.4 79 79 SSW 7 11 30.06 1018 10 16.0934 0 0
9:52 am 09:52 Cloudy 74 23.3 67 19.4 79 79 WSW 9 15 30.07 1018 10 16.0934 0 0
10:52 am 10:52 Cloudy with Light Rain 72 22.2 68 20 87 87 WSW 6 9 30.07 1018 5 8.0467 0.03 0.762
11:52 am 11:52 Cloudy with Light Rain 72 22.2 69 20.6 91 91 SSW 6 9 30.06 1018 7 11.26538 0.02 0.508
12:20 pm 12:20 Cloudy with Light Rain 72 22.2 69 20.6 91 91 S 5 7 30.03 1017 8 12.87472 0.05 1.27
12:52 pm 12:52 Cloudy 73 22.8 70 21.1 90 90 SSE 5 7 30.03 1017 8 12.87472 0.05 1.27
1:52 pm 13:52 Mostly Cloudy 76 24.4 70 21.1 82 82 S 10 17 30.02 1017 10 16.0934 0 0
2:52 pm 14:52 Mostly Cloudy 81 27.2 70 21.1 69 69 S 8 13 30 1016 10 16.0934 0 0
3:52 pm 15:52 Mostly Cloudy 82 27.8 70 21.1 67 67 S 12 19 29.97 1015 10 16.0934 0 0
4:52 pm 16:52 Mostly Cloudy 82 27.8 71 21.7 69 69 S 10 17 29.94 1014 10 16.0934 0 0
5:52 pm 17:52 Partly Cloudy 82 27.8 70 21.1 67 67 SSW 9 15 29.93 1014 10 16.0934 0 0
6:52 pm 18:52 Partly Cloudy 82 27.8 71 21.7 69 69 SSW 8 13 29.92 1013 10 16.0934 0 0
7:52 pm 19:52 Partly Cloudy 79 26.1 69 20.6 72 72 SSW 6 9 29.91 1013 10 16.0934 0 0
8:52 pm 20:52 Cloudy 78 25.6 69 20.6 74 74 S 5 7 29.93 1013 10 16.0934 0 0
9:52 pm 21:52 Cloudy 78 25.6 70 21.1 76 76 SSW 7 11 29.93 1014 10 16.0934 0 0
10:13 pm 22:13 Cloudy with Thunderstorms 78 25.6 70 21.1 76 76 SW 8 13 29.93 1014 10 16.0934 0 0
10:34 pm 22:34 Windy with Storms Likely 73 22.8 67 19.4 81 81 NNW 26 43 29.98 1015 8 12.87472 0.001 0.001
10:38 pm 22:38 Cloudy with Heavy Thunderstorms 72 22.2 67 19.4 84 84 NNW 21 33 29.98 1015 2.5 4.02335 0.001 0.001
10:46 pm 22:46 Cloudy with Thunderstorms 72 22 66 19 83 83 N 20 31 29.99 1016 5 8.0467 0.06 1.524
10:52 pm 22:52 Cloudy with Light Thunderstorms 71 21.7 68 20 90 90 N 14 22 30.01 1016 9 14.48406 0.07 1.778
11:10 pm 23:10 Cloudy 71 21.7 67 19.4 87 87 N 13 20 30.01 1016 10 16.0934 0.001 0.001
11:52 pm 23:52 Cloudy with Rain 70 21.1 66 18.9 87 87 N 8 13 30.03 1017 6 9.65604 0.01 0.254

Powered by AerisWeather